Location: Devore Heights
(34.2372°N, 117.4156°W)
Time: 08:40:26
(UTC+00:00)

Altair - Pass Details

Date: 15 September 2024
Orbit: 1501 x 1682 km, 47.2° (Epoch: 07 October)

Event Time Altitude Azimuth Distance (km) Brightness Sun altitude
Rises 11:31:27 0° 263° (W) 4,862 - -25.3°
Reaches altitude 10° 11:34:45 10° 269° (W) 3,896 - -24.6°
Exits shadow 11:39:11 28° 285° (WNW) 2,750 8.4 -23.8°
Maximum altitude 11:44:21 48° 341° (NNW) 2,104 8.1 -22.8°
Drops below altitude 10° 11:54:06 10° 54° (NE) 3,945 10.7 -20.9°
Sets 11:57:29 0° 60° (ENE) 4,927 11.6 -20.2°
